Year,Month,Day,Hour,Minute,Value (Times are PST for temperature in C)
2008,08,26,00,00,13.30
2008,08,26,00,01,13.30
2008,08,26,00,02,13.30
2008,08,26,00,03,13.30
2008,08,26,00,04,13.30
2008,08,26,00,05,13.30
2008,08,26,00,06,13.30
2008,08,26,00,07,13.30
2008,08,26,00,08,13.30
2008,08,26,00,09,13.20
2008,08,26,00,10,13.20
2008,08,26,00,11,13.20
2008,08,26,00,12,13.20
2008,08,26,00,13,13.20
2008,08,26,00,14,13.10
2008,08,26,00,15,13.10
2008,08,26,00,16,13.10
2008,08,26,00,17,13.10
2008,08,26,00,18,13.10
2008,08,26,00,19,13.10
2008,08,26,00,20,13.10
2008,08,26,00,21,13.00
2008,08,26,00,22,13.00
2008,08,26,00,23,12.90
2008,08,26,00,24,12.90
2008,08,26,00,25,12.80
2008,08,26,00,26,12.80
2008,08,26,00,27,12.80
2008,08,26,00,28,12.70
2008,08,26,00,29,12.60
2008,08,26,00,30,12.50
2008,08,26,00,31,12.50
2008,08,26,00,32,12.50
2008,08,26,00,33,12.40
2008,08,26,00,34,12.40
2008,08,26,00,35,12.30
2008,08,26,00,36,12.30
2008,08,26,00,37,12.30
2008,08,26,00,38,12.30
2008,08,26,00,39,12.30
2008,08,26,00,40,12.30
2008,08,26,00,41,12.30
2008,08,26,00,42,12.30
2008,08,26,00,43,12.30
2008,08,26,00,44,12.30
2008,08,26,00,45,12.30
2008,08,26,00,46,12.30
2008,08,26,00,47,12.30
2008,08,26,00,48,12.30
2008,08,26,00,49,12.30
2008,08,26,00,50,12.30
2008,08,26,00,51,12.30
2008,08,26,00,52,12.30
2008,08,26,00,53,12.30
2008,08,26,00,54,12.30
2008,08,26,00,55,12.30
2008,08,26,00,56,12.30
2008,08,26,00,57,12.20
2008,08,26,00,58,12.20
2008,08,26,00,59,12.20
2008,08,26,01,00,12.20
2008,08,26,01,01,12.20
2008,08,26,01,02,12.10
2008,08,26,01,03,12.10
2008,08,26,01,04,12.10
2008,08,26,01,05,12.00
2008,08,26,01,06,12.00
2008,08,26,01,07,11.90
2008,08,26,01,08,11.90
2008,08,26,01,09,11.90
2008,08,26,01,10,11.80
2008,08,26,01,11,11.80
2008,08,26,01,12,11.80
2008,08,26,01,13,11.70
2008,08,26,01,14,11.70
2008,08,26,01,15,11.70
2008,08,26,01,16,11.60
2008,08,26,01,17,11.60
2008,08,26,01,18,11.60
2008,08,26,01,19,11.50
2008,08,26,01,20,11.50
2008,08,26,01,21,11.40
2008,08,26,01,22,11.40
2008,08,26,01,23,11.30
2008,08,26,01,24,11.30
2008,08,26,01,25,11.20
2008,08,26,01,26,11.20
2008,08,26,01,27,11.20
2008,08,26,01,28,11.10
2008,08,26,01,29,11.10
2008,08,26,01,30,11.00
2008,08,26,01,31,10.90
2008,08,26,01,32,10.90
2008,08,26,01,33,10.80
2008,08,26,01,34,10.80
2008,08,26,01,35,10.80
2008,08,26,01,36,10.80
2008,08,26,01,37,10.80
2008,08,26,01,38,10.80
2008,08,26,01,39,10.90
2008,08,26,01,40,10.90
2008,08,26,01,41,10.90
2008,08,26,01,42,10.90
2008,08,26,01,43,10.90
2008,08,26,01,44,10.80
2008,08,26,01,45,10.80
2008,08,26,01,46,10.80
2008,08,26,01,47,10.80
2008,08,26,01,48,10.80
2008,08,26,01,49,10.70
2008,08,26,01,50,10.70
2008,08,26,01,51,10.70
2008,08,26,01,52,10.60
2008,08,26,01,53,10.60
2008,08,26,01,54,10.60
2008,08,26,01,55,10.60
2008,08,26,01,56,10.60
2008,08,26,01,57,10.60
2008,08,26,01,58,10.50
2008,08,26,01,59,10.50
2008,08,26,02,00,10.40
2008,08,26,02,01,10.40
2008,08,26,02,02,10.40
2008,08,26,02,03,10.40
2008,08,26,02,04,10.40
2008,08,26,02,05,10.50
2008,08,26,02,06,10.50
2008,08,26,02,07,10.50
2008,08,26,02,08,10.50
2008,08,26,02,09,10.50
2008,08,26,02,10,10.50
2008,08,26,02,11,10.40
2008,08,26,02,12,10.40
2008,08,26,02,13,10.40
2008,08,26,02,14,10.40
2008,08,26,02,15,10.40
2008,08,26,02,16,10.40
2008,08,26,02,17,10.40
2008,08,26,02,18,10.40
2008,08,26,02,19,10.40
2008,08,26,02,20,10.40
2008,08,26,02,21,10.40
2008,08,26,02,22,10.40
2008,08,26,02,23,10.40
2008,08,26,02,24,10.40
2008,08,26,02,25,10.40
2008,08,26,02,26,10.40
2008,08,26,02,27,10.40
2008,08,26,02,28,10.30
2008,08,26,02,29,10.30
2008,08,26,02,30,10.30
2008,08,26,02,31,10.30
2008,08,26,02,32,10.30
2008,08,26,02,33,10.30
2008,08,26,02,34,10.30
2008,08,26,02,35,10.30
2008,08,26,02,36,10.20
2008,08,26,02,37,10.20
2008,08,26,02,38,10.10
2008,08,26,02,39,10.10
2008,08,26,02,40,10.00
2008,08,26,02,41,9.90
2008,08,26,02,42,9.90
2008,08,26,02,43,9.80
2008,08,26,02,44,9.70
2008,08,26,02,45,9.70
2008,08,26,02,46,9.70
2008,08,26,02,47,9.60
2008,08,26,02,48,9.60
2008,08,26,02,49,9.60
2008,08,26,02,50,9.60
2008,08,26,02,51,9.50
2008,08,26,02,52,9.50
2008,08,26,02,53,9.50
2008,08,26,02,54,9.40
2008,08,26,02,55,9.40
2008,08,26,02,56,9.40
2008,08,26,02,57,9.40
2008,08,26,02,58,9.40
2008,08,26,02,59,9.40
2008,08,26,03,00,9.30
2008,08,26,03,01,9.30
2008,08,26,03,02,9.40
2008,08,26,03,03,9.40
2008,08,26,03,04,9.40
2008,08,26,03,05,9.30
2008,08,26,03,06,9.30
2008,08,26,03,07,9.30
2008,08,26,03,08,9.30
2008,08,26,03,09,9.30
2008,08,26,03,10,9.30
2008,08,26,03,11,9.30
2008,08,26,03,12,9.30
2008,08,26,03,13,9.30
2008,08,26,03,14,9.30
2008,08,26,03,15,9.30
2008,08,26,03,16,9.30
2008,08,26,03,17,9.30
2008,08,26,03,18,9.30
2008,08,26,03,19,9.20
2008,08,26,03,20,9.20
2008,08,26,03,21,9.20
2008,08,26,03,22,9.10
2008,08,26,03,23,9.10
2008,08,26,03,24,9.10
2008,08,26,03,25,9.00
2008,08,26,03,26,9.00
2008,08,26,03,27,9.00
2008,08,26,03,28,8.90
2008,08,26,03,29,8.90
2008,08,26,03,30,8.90
2008,08,26,03,31,8.90
2008,08,26,03,32,8.90
2008,08,26,03,33,8.90
2008,08,26,03,34,8.90
2008,08,26,03,35,8.90
2008,08,26,03,36,8.90
2008,08,26,03,37,8.90
2008,08,26,03,38,8.90
2008,08,26,03,39,8.80
2008,08,26,03,40,8.80
2008,08,26,03,41,8.80
2008,08,26,03,42,8.70
2008,08,26,03,43,8.70
2008,08,26,03,44,8.60
2008,08,26,03,45,8.60
2008,08,26,03,46,8.60
2008,08,26,03,47,8.50
2008,08,26,03,48,8.50
2008,08,26,03,49,8.50
2008,08,26,03,50,8.40
2008,08,26,03,51,8.40
2008,08,26,03,52,8.40
2008,08,26,03,53,8.40
2008,08,26,03,54,8.40
2008,08,26,03,55,8.40
2008,08,26,03,56,8.40
2008,08,26,03,57,8.40
2008,08,26,03,58,8.40
2008,08,26,03,59,8.40
2008,08,26,04,00,8.40
2008,08,26,04,01,8.40
2008,08,26,04,02,8.40
2008,08,26,04,03,8.40
2008,08,26,04,04,8.40
2008,08,26,04,05,8.40
2008,08,26,04,06,8.40
2008,08,26,04,07,8.40
2008,08,26,04,08,8.40
2008,08,26,04,09,8.40
2008,08,26,04,10,8.40
2008,08,26,04,11,8.40
2008,08,26,04,12,8.40
2008,08,26,04,13,8.40
2008,08,26,04,14,8.40
2008,08,26,04,15,8.40
2008,08,26,04,16,8.30
2008,08,26,04,17,8.30
2008,08,26,04,18,8.30
2008,08,26,04,19,8.30
2008,08,26,04,20,8.30
2008,08,26,04,21,8.30
2008,08,26,04,22,8.30
2008,08,26,04,23,8.30
2008,08,26,04,24,8.30
2008,08,26,04,25,8.30
2008,08,26,04,26,8.30
2008,08,26,04,27,8.30
2008,08,26,04,28,8.30
2008,08,26,04,29,8.30
2008,08,26,04,30,8.30
2008,08,26,04,31,8.20
2008,08,26,04,32,8.20
2008,08,26,04,33,8.10
2008,08,26,04,34,8.10
2008,08,26,04,35,8.00
2008,08,26,04,36,8.00
2008,08,26,04,37,8.00
2008,08,26,04,38,8.00
2008,08,26,04,39,7.90
2008,08,26,04,40,7.90
2008,08,26,04,41,7.90
2008,08,26,04,42,7.90
2008,08,26,04,43,7.90
2008,08,26,04,44,7.90
2008,08,26,04,45,7.90
2008,08,26,04,46,7.90
2008,08,26,04,47,7.90
2008,08,26,04,48,7.90
2008,08,26,04,49,7.90
2008,08,26,04,50,7.90
2008,08,26,04,51,7.90
2008,08,26,04,52,7.90
2008,08,26,04,53,7.90
2008,08,26,04,54,7.90
2008,08,26,04,55,7.90
2008,08,26,04,56,7.90
2008,08,26,04,57,7.80
2008,08,26,04,58,7.80
2008,08,26,04,59,7.80
2008,08,26,05,00,7.80
2008,08,26,05,01,7.70
2008,08,26,05,02,7.70
2008,08,26,05,03,7.70
2008,08,26,05,04,7.70
2008,08,26,05,05,7.70
2008,08,26,05,06,7.60
2008,08,26,05,07,7.60
2008,08,26,05,08,7.60
2008,08,26,05,09,7.60
2008,08,26,05,10,7.60
2008,08,26,05,11,7.60
2008,08,26,05,12,7.60
2008,08,26,05,13,7.60
2008,08,26,05,14,7.50
2008,08,26,05,15,7.50
2008,08,26,05,16,7.50
2008,08,26,05,17,7.50
2008,08,26,05,18,7.50
2008,08,26,05,19,7.50
2008,08,26,05,20,7.50
2008,08,26,05,21,7.50
2008,08,26,05,22,7.60
2008,08,26,05,23,7.60
2008,08,26,05,24,7.60
2008,08,26,05,25,7.60
2008,08,26,05,26,7.60
2008,08,26,05,27,7.60
2008,08,26,05,28,7.60
2008,08,26,05,29,7.60
2008,08,26,05,30,7.60
2008,08,26,05,31,7.60
2008,08,26,05,32,7.60
2008,08,26,05,33,7.60
2008,08,26,05,34,7.60
2008,08,26,05,35,7.60
2008,08,26,05,36,7.60
2008,08,26,05,37,7.60
2008,08,26,05,38,7.60
2008,08,26,05,39,7.60
2008,08,26,05,40,7.50
2008,08,26,05,41,7.50
2008,08,26,05,42,7.50
2008,08,26,05,43,7.50
2008,08,26,05,44,7.40
2008,08,26,05,45,7.50
2008,08,26,05,46,7.50
2008,08,26,05,47,7.50
2008,08,26,05,48,7.50
2008,08,26,05,49,7.50
2008,08,26,05,50,7.50
2008,08,26,05,51,7.60
2008,08,26,05,52,7.60
2008,08,26,05,53,7.60
2008,08,26,05,54,7.60
2008,08,26,05,55,7.60
2008,08,26,05,56,7.60
2008,08,26,05,57,7.60
2008,08,26,05,58,7.60
2008,08,26,05,59,7.60
2008,08,26,06,00,7.60
2008,08,26,06,01,7.60
2008,08,26,06,02,7.60
2008,08,26,06,03,7.60
2008,08,26,06,04,7.60
2008,08,26,06,05,7.60
2008,08,26,06,06,7.60
2008,08,26,06,07,7.60
2008,08,26,06,08,7.60
2008,08,26,06,09,7.50
2008,08,26,06,10,7.50
2008,08,26,06,11,7.50
2008,08,26,06,12,7.50
2008,08,26,06,13,7.50
2008,08,26,06,14,7.50
2008,08,26,06,15,7.50
2008,08,26,06,16,7.40
2008,08,26,06,17,7.40
2008,08,26,06,18,7.40
2008,08,26,06,19,7.30
2008,08,26,06,20,7.30
2008,08,26,06,21,7.30
2008,08,26,06,22,7.30
2008,08,26,06,23,7.30
2008,08,26,06,24,7.30
2008,08,26,06,25,7.30
2008,08,26,06,26,7.30
2008,08,26,06,27,7.30
2008,08,26,06,28,7.30
2008,08,26,06,29,7.30
2008,08,26,06,30,7.30
2008,08,26,06,31,7.30
2008,08,26,06,32,7.40
2008,08,26,06,33,7.40
2008,08,26,06,34,7.50
2008,08,26,06,35,7.50
2008,08,26,06,36,7.50
2008,08,26,06,37,7.50
2008,08,26,06,38,7.40
2008,08,26,06,39,7.40
2008,08,26,06,40,7.30
2008,08,26,06,41,7.30
2008,08,26,06,42,7.30
2008,08,26,06,43,7.30
2008,08,26,06,44,7.40
2008,08,26,06,45,7.40
2008,08,26,06,46,7.40
2008,08,26,06,47,7.50
2008,08,26,06,48,7.50
2008,08,26,06,49,7.50
2008,08,26,06,50,7.60
2008,08,26,06,51,7.60
2008,08,26,06,52,7.60
2008,08,26,06,53,7.50
2008,08,26,06,54,7.50
2008,08,26,06,55,7.50
2008,08,26,06,56,7.50
2008,08,26,06,57,7.50
2008,08,26,06,58,7.50
2008,08,26,06,59,7.40
2008,08,26,07,00,7.40
2008,08,26,07,01,7.40
2008,08,26,07,02,7.50
2008,08,26,07,03,7.50
2008,08,26,07,04,7.50
2008,08,26,07,05,7.50
2008,08,26,07,06,7.60
2008,08,26,07,07,7.60
2008,08,26,07,08,7.70
2008,08,26,07,09,7.70
2008,08,26,07,10,7.80
2008,08,26,07,11,7.80
2008,08,26,07,12,7.90
2008,08,26,07,13,7.90
2008,08,26,07,14,7.90
2008,08,26,07,15,7.90
2008,08,26,07,16,8.00
2008,08,26,07,17,8.00
2008,08,26,07,18,8.00
2008,08,26,07,19,8.00
2008,08,26,07,20,8.00
2008,08,26,07,21,8.00
2008,08,26,07,22,8.00
2008,08,26,07,23,8.10
2008,08,26,07,24,8.10
2008,08,26,07,25,8.20
2008,08,26,07,26,8.20
2008,08,26,07,27,8.30
2008,08,26,07,28,8.40
2008,08,26,07,29,8.50
2008,08,26,07,30,8.60
2008,08,26,07,31,8.70
2008,08,26,07,32,8.80
2008,08,26,07,33,8.90
2008,08,26,07,34,9.00
2008,08,26,07,35,9.00
2008,08,26,07,36,9.10
2008,08,26,07,37,9.10
2008,08,26,07,38,9.10
2008,08,26,07,39,9.20
2008,08,26,07,40,9.20
2008,08,26,07,41,9.30
2008,08,26,07,42,9.40
2008,08,26,07,43,9.50
2008,08,26,07,44,9.60
2008,08,26,07,45,9.60
2008,08,26,07,46,9.70
2008,08,26,07,47,9.80
2008,08,26,07,48,9.80
2008,08,26,07,49,9.90
2008,08,26,07,50,9.90
2008,08,26,07,51,10.00
2008,08,26,07,52,10.10
2008,08,26,07,53,10.10
2008,08,26,07,54,10.20
2008,08,26,07,55,10.30
2008,08,26,07,56,10.40
2008,08,26,07,57,10.40
2008,08,26,07,58,10.50
2008,08,26,07,59,10.60
2008,08,26,08,00,10.60
2008,08,26,08,01,10.80
2008,08,26,08,02,10.90
2008,08,26,08,03,11.10
2008,08,26,08,04,11.20
2008,08,26,08,05,11.40
2008,08,26,08,06,11.50
2008,08,26,08,07,11.60
2008,08,26,08,08,11.60
2008,08,26,08,09,11.70
2008,08,26,08,10,11.80
2008,08,26,08,11,11.80
2008,08,26,08,12,11.80
2008,08,26,08,13,11.90
2008,08,26,08,14,12.00
2008,08,26,08,15,12.00
2008,08,26,08,16,12.10
2008,08,26,08,17,12.10
2008,08,26,08,18,12.20
2008,08,26,08,19,12.30
2008,08,26,08,20,12.30
2008,08,26,08,21,12.40
2008,08,26,08,22,12.40
2008,08,26,08,23,12.40
2008,08,26,08,24,12.40
2008,08,26,08,25,12.40
2008,08,26,08,26,12.50
2008,08,26,08,27,12.50
2008,08,26,08,28,12.60
2008,08,26,08,29,12.60
2008,08,26,08,30,12.70
2008,08,26,08,31,12.70
2008,08,26,08,32,12.70
2008,08,26,08,33,12.70
2008,08,26,08,34,12.70
2008,08,26,08,35,12.70
2008,08,26,08,36,12.80
2008,08,26,08,37,12.80
2008,08,26,08,38,12.80
2008,08,26,08,39,12.80
2008,08,26,08,40,12.90
2008,08,26,08,41,13.00
2008,08,26,08,42,13.00
2008,08,26,08,43,13.00
2008,08,26,08,44,13.10
2008,08,26,08,45,13.10
2008,08,26,08,46,13.20
2008,08,26,08,47,13.20
2008,08,26,08,48,13.30
2008,08,26,08,49,13.30
2008,08,26,08,50,13.40
2008,08,26,08,51,13.40
2008,08,26,08,52,13.40
2008,08,26,08,53,13.50
2008,08,26,08,54,13.50
2008,08,26,08,55,13.50
2008,08,26,08,56,13.60
2008,08,26,08,57,13.60
2008,08,26,08,58,13.60
2008,08,26,08,59,13.70
2008,08,26,09,00,13.70
2008,08,26,09,01,13.80
2008,08,26,09,02,13.80
2008,08,26,09,03,13.90
2008,08,26,09,04,14.00
2008,08,26,09,05,14.10
2008,08,26,09,06,14.10
2008,08,26,09,07,14.20
2008,08,26,09,08,14.20
2008,08,26,09,09,14.30
2008,08,26,09,10,14.30
2008,08,26,09,11,14.40
2008,08,26,09,12,14.50
2008,08,26,09,13,14.50
2008,08,26,09,14,14.60
2008,08,26,09,15,14.60
2008,08,26,09,16,14.70
2008,08,26,09,17,14.70
2008,08,26,09,18,14.70
2008,08,26,09,19,14.70
2008,08,26,09,20,14.70
2008,08,26,09,21,14.60
2008,08,26,09,22,14.60
2008,08,26,09,23,14.60
2008,08,26,09,24,14.50
2008,08,26,09,25,14.50
2008,08,26,09,26,14.40
2008,08,26,09,27,14.40
2008,08,26,09,28,14.40
2008,08,26,09,29,14.40
2008,08,26,09,30,14.30
2008,08,26,09,31,14.20
2008,08,26,09,32,14.20
2008,08,26,09,33,14.20
2008,08,26,09,34,14.10
2008,08,26,09,35,14.10
2008,08,26,09,36,14.10
2008,08,26,09,37,14.00
2008,08,26,09,38,13.90
2008,08,26,09,39,13.80
2008,08,26,09,40,13.80
2008,08,26,09,41,13.70
2008,08,26,09,42,13.70
2008,08,26,09,43,13.70
2008,08,26,09,44,13.70
2008,08,26,09,45,13.70
2008,08,26,09,46,13.70
2008,08,26,09,47,13.70
2008,08,26,09,48,13.70
2008,08,26,09,49,13.70
2008,08,26,09,50,13.70
2008,08,26,09,51,13.70
2008,08,26,09,52,13.60
2008,08,26,09,53,13.60
2008,08,26,09,54,13.60
2008,08,26,09,55,13.70
2008,08,26,09,56,13.70
2008,08,26,09,57,13.70
2008,08,26,09,58,13.80
2008,08,26,09,59,13.80
2008,08,26,10,00,13.80
2008,08,26,10,01,13.90
2008,08,26,10,02,13.90
2008,08,26,10,03,13.90
2008,08,26,10,04,14.00
2008,08,26,10,05,14.00
2008,08,26,10,06,14.10
2008,08,26,10,07,14.10
2008,08,26,10,08,14.10
2008,08,26,10,09,14.10
2008,08,26,10,10,14.10
2008,08,26,10,11,14.10
2008,08,26,10,12,14.20
2008,08,26,10,13,14.30
2008,08,26,10,14,14.20
2008,08,26,10,15,14.20
2008,08,26,10,16,14.20
2008,08,26,10,17,14.10
2008,08,26,10,18,14.10
2008,08,26,10,19,14.10
2008,08,26,10,20,14.10
2008,08,26,10,21,14.00
2008,08,26,10,22,14.00
2008,08,26,10,23,13.90
2008,08,26,10,24,13.90
2008,08,26,10,25,13.90
2008,08,26,10,26,14.00
2008,08,26,10,27,14.00
2008,08,26,10,28,14.10
2008,08,26,10,29,14.10
2008,08,26,10,30,14.20
2008,08,26,10,31,14.10
2008,08,26,10,32,14.10
2008,08,26,10,33,14.10
2008,08,26,10,34,14.20
2008,08,26,10,35,14.20
2008,08,26,10,36,14.20
2008,08,26,10,37,14.20
2008,08,26,10,38,14.20
2008,08,26,10,39,14.20
2008,08,26,10,40,14.30
2008,08,26,10,41,14.30
2008,08,26,10,42,14.30
2008,08,26,10,43,14.30
2008,08,26,10,44,14.30
2008,08,26,10,45,14.30
2008,08,26,10,46,14.40
2008,08,26,10,47,14.50
2008,08,26,10,48,14.60
2008,08,26,10,49,14.50
2008,08,26,10,50,14.50
2008,08,26,10,51,14.40
2008,08,26,10,52,14.50
2008,08,26,10,53,14.60
2008,08,26,10,54,14.70
2008,08,26,10,55,14.80
2008,08,26,10,56,14.80
2008,08,26,10,57,14.80
2008,08,26,10,58,14.80
2008,08,26,10,59,14.80
2008,08,26,11,00,14.70
2008,08,26,11,01,14.70
2008,08,26,11,02,14.70
2008,08,26,11,03,14.80
2008,08,26,11,04,14.90
2008,08,26,11,05,14.90
2008,08,26,11,06,15.00
2008,08,26,11,07,15.00
2008,08,26,11,08,15.00
2008,08,26,11,09,15.00
2008,08,26,11,10,15.00
2008,08,26,11,11,15.00
2008,08,26,11,12,15.00
2008,08,26,11,13,15.00
2008,08,26,11,14,15.10
2008,08,26,11,15,15.20
2008,08,26,11,16,15.20
2008,08,26,11,17,15.40
2008,08,26,11,18,15.50
2008,08,26,11,19,15.60
2008,08,26,11,20,15.70
2008,08,26,11,21,15.80
2008,08,26,11,22,15.80
2008,08,26,11,23,15.90
2008,08,26,11,24,16.00
2008,08,26,11,25,16.00
2008,08,26,11,26,16.10
2008,08,26,11,27,16.20
2008,08,26,11,28,16.20
2008,08,26,11,29,16.30
2008,08,26,11,30,16.40
2008,08,26,11,31,16.50
2008,08,26,11,32,16.60
2008,08,26,11,33,16.60
2008,08,26,11,34,16.60
2008,08,26,11,35,16.50
2008,08,26,11,36,16.60
2008,08,26,11,37,16.50
2008,08,26,11,38,16.50
2008,08,26,11,39,16.50
2008,08,26,11,40,16.60
2008,08,26,11,41,16.60
2008,08,26,11,42,16.70
2008,08,26,11,43,16.70
2008,08,26,11,44,16.70
2008,08,26,11,45,16.80
2008,08,26,11,46,17.00
2008,08,26,11,47,16.90
2008,08,26,11,48,16.90
2008,08,26,11,49,16.90
2008,08,26,11,50,16.80
2008,08,26,11,51,16.80
2008,08,26,11,52,16.80
2008,08,26,11,53,16.70
2008,08,26,11,54,16.70
2008,08,26,11,55,16.60
2008,08,26,11,56,16.70
2008,08,26,11,57,16.70
2008,08,26,11,58,16.80
2008,08,26,11,59,16.90
2008,08,26,12,00,16.90
2008,08,26,12,01,17.00
2008,08,26,12,02,17.00
2008,08,26,12,03,16.90
2008,08,26,12,04,16.90
2008,08,26,12,05,16.80
2008,08,26,12,06,16.80
2008,08,26,12,07,16.70
2008,08,26,12,08,16.70
2008,08,26,12,09,16.70
2008,08,26,12,10,16.80
2008,08,26,12,11,16.70
2008,08,26,12,12,16.70
2008,08,26,12,13,16.60
2008,08,26,12,14,16.70
2008,08,26,12,15,16.80
2008,08,26,12,16,16.90
2008,08,26,12,17,16.90
2008,08,26,12,18,16.80
2008,08,26,12,19,16.80
2008,08,26,12,20,16.70
2008,08,26,12,21,16.60
2008,08,26,12,22,16.60
2008,08,26,12,23,16.60
2008,08,26,12,24,16.60
2008,08,26,12,25,16.50
2008,08,26,12,26,16.60
2008,08,26,12,27,16.50
2008,08,26,12,28,16.40
2008,08,26,12,29,16.40
2008,08,26,12,30,16.40
2008,08,26,12,31,16.50
2008,08,26,12,32,16.40
2008,08,26,12,33,16.40
2008,08,26,12,34,16.40
2008,08,26,12,35,16.40
2008,08,26,12,36,16.40
2008,08,26,12,37,16.30
2008,08,26,12,38,16.30
2008,08,26,12,39,16.40
2008,08,26,12,40,16.40
2008,08,26,12,41,16.50
2008,08,26,12,42,16.60
2008,08,26,12,43,16.60
2008,08,26,12,44,16.60
2008,08,26,12,45,16.50
2008,08,26,12,46,16.50
2008,08,26,12,47,16.50
2008,08,26,12,48,16.50
2008,08,26,12,49,16.50
2008,08,26,12,50,16.50
2008,08,26,12,51,16.40
2008,08,26,12,52,16.40
2008,08,26,12,53,16.40
2008,08,26,12,54,16.40
2008,08,26,12,55,16.40
2008,08,26,12,56,16.40
2008,08,26,12,57,16.40
2008,08,26,12,58,16.30
2008,08,26,12,59,16.30
2008,08,26,13,00,16.20
2008,08,26,13,01,16.20
2008,08,26,13,02,16.20
2008,08,26,13,03,16.10
2008,08,26,13,04,16.10
2008,08,26,13,05,16.00
2008,08,26,13,06,16.00
2008,08,26,13,07,16.00
2008,08,26,13,08,16.00
2008,08,26,13,09,16.00
2008,08,26,13,10,15.90
2008,08,26,13,11,15.90
2008,08,26,13,12,15.90
2008,08,26,13,13,15.90
2008,08,26,13,14,15.80
2008,08,26,13,15,15.80
2008,08,26,13,16,15.80
2008,08,26,13,17,15.90
2008,08,26,13,18,15.80
2008,08,26,13,19,15.80
2008,08,26,13,20,15.80
2008,08,26,13,21,15.70
2008,08,26,13,22,15.70
2008,08,26,13,23,15.60
2008,08,26,13,24,15.60
2008,08,26,13,25,15.60
2008,08,26,13,26,15.60
2008,08,26,13,27,15.50
2008,08,26,13,28,15.50
2008,08,26,13,29,15.60
2008,08,26,13,30,15.50
2008,08,26,13,31,15.50
2008,08,26,13,32,15.50
2008,08,26,13,33,15.40
2008,08,26,13,34,15.40
2008,08,26,13,35,15.50
2008,08,26,13,36,15.50
2008,08,26,13,37,15.40
2008,08,26,13,38,15.50
2008,08,26,13,39,15.50
2008,08,26,13,40,15.50
2008,08,26,13,41,15.50
2008,08,26,13,42,15.50
2008,08,26,13,43,15.60
2008,08,26,13,44,15.60
2008,08,26,13,45,15.60
2008,08,26,13,46,15.60
2008,08,26,13,47,15.60
2008,08,26,13,48,15.60
2008,08,26,13,49,15.70
2008,08,26,13,50,15.70
2008,08,26,13,51,15.70
2008,08,26,13,52,15.70
2008,08,26,13,53,15.80
2008,08,26,13,54,15.80
2008,08,26,13,55,15.80
2008,08,26,13,56,15.80
2008,08,26,13,57,15.80
2008,08,26,13,58,15.80
2008,08,26,13,59,15.80
2008,08,26,14,00,15.80
2008,08,26,14,01,15.80
2008,08,26,14,02,15.90
2008,08,26,14,03,15.90
2008,08,26,14,04,16.00
2008,08,26,14,05,16.00
2008,08,26,14,06,16.00
2008,08,26,14,07,16.00
2008,08,26,14,08,15.90
2008,08,26,14,09,16.00
2008,08,26,14,10,16.00
2008,08,26,14,11,16.10
2008,08,26,14,12,16.10
2008,08,26,14,13,16.20
2008,08,26,14,14,16.20
2008,08,26,14,15,16.20
2008,08,26,14,16,16.20
2008,08,26,14,17,16.20
2008,08,26,14,18,16.20
2008,08,26,14,19,16.20
2008,08,26,14,20,16.30
2008,08,26,14,21,16.30
2008,08,26,14,22,16.40
2008,08,26,14,23,16.40
2008,08,26,14,24,16.30
2008,08,26,14,25,16.30
2008,08,26,14,26,16.20
2008,08,26,14,27,16.20
2008,08,26,14,28,16.20
2008,08,26,14,29,16.20
2008,08,26,14,30,16.20
2008,08,26,14,31,16.20
2008,08,26,14,32,16.20
2008,08,26,14,33,16.20
2008,08,26,14,34,16.20
2008,08,26,14,35,16.20
2008,08,26,14,36,16.30
2008,08,26,14,37,16.30
2008,08,26,14,38,16.40
2008,08,26,14,39,16.40
2008,08,26,14,40,16.40
2008,08,26,14,41,16.50
2008,08,26,14,42,16.60
2008,08,26,14,43,16.60
2008,08,26,14,44,16.60
2008,08,26,14,45,16.50
2008,08,26,14,46,16.50
2008,08,26,14,47,16.60
2008,08,26,14,48,16.60
2008,08,26,14,49,16.60
2008,08,26,14,50,16.70
2008,08,26,14,51,16.70
2008,08,26,14,52,16.70
2008,08,26,14,53,16.70
2008,08,26,14,54,16.70
2008,08,26,14,55,16.70
2008,08,26,14,56,16.70
2008,08,26,14,57,16.70
2008,08,26,14,58,16.60
2008,08,26,14,59,16.40
2008,08,26,15,00,16.40
2008,08,26,15,01,16.30
2008,08,26,15,02,16.30
2008,08,26,15,03,16.40
2008,08,26,15,04,16.40
2008,08,26,15,05,16.30
2008,08,26,15,06,16.30
2008,08,26,15,07,16.30
2008,08,26,15,08,16.30
2008,08,26,15,09,16.30
2008,08,26,15,10,16.40
2008,08,26,15,11,16.40
2008,08,26,15,12,16.40
2008,08,26,15,13,16.50
2008,08,26,15,14,16.60
2008,08,26,15,15,16.60
2008,08,26,15,16,16.60
2008,08,26,15,17,16.50
2008,08,26,15,18,16.50
2008,08,26,15,19,16.50
2008,08,26,15,20,16.50
2008,08,26,15,21,16.60
2008,08,26,15,22,16.50
2008,08,26,15,23,16.50
2008,08,26,15,24,16.50
2008,08,26,15,25,16.40
2008,08,26,15,26,16.40
2008,08,26,15,27,16.50
2008,08,26,15,28,16.50
2008,08,26,15,29,16.50
2008,08,26,15,30,16.50
2008,08,26,15,31,16.40
2008,08,26,15,32,16.40
2008,08,26,15,33,16.40
2008,08,26,15,34,16.30
2008,08,26,15,35,16.30
2008,08,26,15,36,16.20
2008,08,26,15,37,16.20
2008,08,26,15,38,16.20
2008,08,26,15,39,16.20
2008,08,26,15,40,16.20
2008,08,26,15,41,16.20
2008,08,26,15,42,16.20
2008,08,26,15,43,16.10
2008,08,26,15,44,16.10
2008,08,26,15,45,16.10
2008,08,26,15,46,16.10
2008,08,26,15,47,16.00
2008,08,26,15,48,15.90
2008,08,26,15,49,15.90
2008,08,26,15,50,15.90
2008,08,26,15,51,15.90
2008,08,26,15,52,15.90
2008,08,26,15,53,15.80
2008,08,26,15,54,15.80
2008,08,26,15,55,15.80
2008,08,26,15,56,15.80
2008,08,26,15,57,15.80
2008,08,26,15,58,15.80
2008,08,26,15,59,15.80
2008,08,26,16,00,15.80
2008,08,26,16,01,15.80
2008,08,26,16,02,15.70
2008,08,26,16,03,15.80
2008,08,26,16,04,15.80
2008,08,26,16,05,15.80
2008,08,26,16,06,15.70
2008,08,26,16,07,15.70
2008,08,26,16,08,15.70
2008,08,26,16,09,15.70
2008,08,26,16,10,15.70
2008,08,26,16,11,15.70
2008,08,26,16,12,15.70
2008,08,26,16,13,15.70
2008,08,26,16,14,15.70
2008,08,26,16,15,15.70
2008,08,26,16,16,15.70
2008,08,26,16,17,15.70
2008,08,26,16,18,15.60
2008,08,26,16,19,15.60
2008,08,26,16,20,15.60
2008,08,26,16,21,15.60
2008,08,26,16,22,15.60
2008,08,26,16,23,15.60
2008,08,26,16,24,15.60
2008,08,26,16,25,15.60
2008,08,26,16,26,15.60
2008,08,26,16,27,15.60
2008,08,26,16,28,15.60
2008,08,26,16,29,15.60
2008,08,26,16,30,15.60
2008,08,26,16,31,15.60
2008,08,26,16,32,15.60
2008,08,26,16,33,15.70
2008,08,26,16,34,15.60
2008,08,26,16,35,15.70
2008,08,26,16,36,15.70
2008,08,26,16,37,15.70
2008,08,26,16,38,15.70
2008,08,26,16,39,15.70
2008,08,26,16,40,15.70
2008,08,26,16,41,15.80
2008,08,26,16,42,15.80
2008,08,26,16,43,15.80
2008,08,26,16,44,15.80
2008,08,26,16,45,15.70
2008,08,26,16,46,15.70
2008,08,26,16,47,15.70
2008,08,26,16,48,15.70
2008,08,26,16,49,15.70
2008,08,26,16,50,15.70
2008,08,26,16,51,15.70
2008,08,26,16,52,15.70
2008,08,26,16,53,15.80
2008,08,26,16,54,15.80
2008,08,26,16,55,15.80
2008,08,26,16,56,15.80
2008,08,26,16,57,15.80
2008,08,26,16,58,15.80
2008,08,26,16,59,15.80
2008,08,26,17,00,15.80
2008,08,26,17,01,15.80
2008,08,26,17,02,15.80
2008,08,26,17,03,15.80
2008,08,26,17,04,15.80
2008,08,26,17,05,15.80
2008,08,26,17,06,15.80
2008,08,26,17,07,15.70
2008,08,26,17,08,15.70
2008,08,26,17,09,15.80
2008,08,26,17,10,15.80
2008,08,26,17,11,15.80
2008,08,26,17,12,15.70
2008,08,26,17,13,15.80
2008,08,26,17,14,15.80
2008,08,26,17,15,15.80
2008,08,26,17,16,15.80
2008,08,26,17,17,15.80
2008,08,26,17,18,15.80
2008,08,26,17,19,15.80
2008,08,26,17,20,15.80
2008,08,26,17,21,15.80
2008,08,26,17,22,15.80
2008,08,26,17,23,15.80
2008,08,26,17,24,15.80
2008,08,26,17,25,15.80
2008,08,26,17,26,15.80
2008,08,26,17,27,15.70
2008,08,26,17,28,15.70
2008,08,26,17,29,15.70
2008,08,26,17,30,15.70
2008,08,26,17,31,15.70
2008,08,26,17,32,15.70